Regional Weather Roundup
Issued by NWS Raleigh/Durham, NC

Home | Current Version | Previous Version | Text Only | Print | Product List | Glossary On
Versions: 1 2 3 4 5 6 7 8 9 10 11 12 13 14 15 16 17 18 19 20 21 22 23 24 25 26 27
000
ASUS42 KRAH 211310
RWRRAH
NORTH CAROLINA WEATHER ROUNDUP
NATIONAL WEATHER SERVICE RALEIGH NC
900 AM EDT MON MAY 21 2018

NOTE: "FAIR" INDICATES FEW OR NO CLOUDS BELOW 12,000 FEET WITH NO
SIGNIFICANT WEATHER AND/OR OBSTRUCTIONS TO VISIBILITY.

NCZ001-053-055-056-065-067-211400-
WESTERN NORTH CAROLINA

CITY           SKY/WX    TMP DP  RH WIND       PRES   REMARKS
ASHEVILLE      CLOUDY    65  62  90 CALM      30.25R
JEFFERSON      FAIR      65  62  90 CALM      30.27S
MORGANTON        N/A     61  61 100 CALM      30.22R
HICKORY        FAIR      66  65  96 W3        30.18R
RUTHERFORDTON  NOT AVBL
MOUNT AIRY     NOT AVBL
BOONE          FAIR      66  62  86 CALM      30.28S
$$

NCZ021-022-025-041-071-084-088-211400-
CENTRAL NORTH CAROLINA

CITY           SKY/WX    TMP DP  RH WIND       PRES   REMARKS
CHARLOTTE      LGT RAIN  69  68  96 S5        30.18R
GREENSBORO     CLOUDY    72  66  81 CALM      30.17R
WINSTON-SALEM  FAIR      72  66  81 CALM      30.18S
RALEIGH-DURHAM PTSUNNY   74  69  85 W7        30.16R
FORT BRAGG     FAIR      75  68  77 W3        30.15S
FAYETTEVILLE   FAIR      75  68  78 SW6       30.16R
BURLINGTON     FAIR      73  66  78 S5        30.16R
LAURINBURG     FAIR      73  68  84 SW5       30.18R
$$

NCZ011-015-027-028-043-044-047-080-103-211400-
NORTHEASTERN NORTH CAROLINA

CITY           SKY/WX    TMP DP  RH WIND       PRES   REMARKS
ROCKY MT-WILSO FAIR      75  70  84 SW6       30.15R
GREENVILLE     PTSUNNY   73  70  88 SW8       30.16S
WASHINGTON     CLOUDY    73  71  92 CALM      30.16R
ELIZABETH CITY FAIR      78  74  87 W7        30.13S
MANTEO         FAIR      77  70  81 W5        30.14S
CAPE HATTERAS  FAIR      76  72  87 W8        30.16R
$$

NCZ078-087-090-091-093-098-101-211400-
SOUTHEASTERN NORTH CAROLINA

CITY           SKY/WX    TMP DP  RH WIND       PRES   REMARKS
LUMBERTON      PTSUNNY   73  70  90 W6        30.17R
GOLDSBORO      PTSUNNY   75  70  83 SW7       30.15S
KINSTON        PTSUNNY   75  70  83 SW7       30.15S
KENANSVILLE    CLOUDY    72  70  94 W5        30.18R
NEW BERN       CLOUDY    73  71  93 W6        30.17R
CHERRY POINT   NOT AVBL
BEAUFORT       FAIR      75  71  87 SW9       30.17R
JACKSONVILLE   FAIR      76  71  85 SW8       30.15S
WILMINGTON     FAIR      77  70  79 SW7       30.17R
$$





USA.gov is the U.S. government's official web portal to all federal, state and local government web resources and services.